Vorticity
7 9 10 12 12 14 18 16 11 12 8 8 12 9 9 10 14 -5 12 11 11 15 13 10 10 9 10 10 1 22 12 7 6 7 3 7 7 8 11 12 9 6 1 17 26 18 14
6 3 11 10 9 9 9 9 11 14 17 12 6 11 10 8 11 12 -7 3 12 15 14 10 9 10 10 9 15 2 16 8 7 8 5 4 9 6 18 16 7 7 -1 12 12 10 5
4 1 3 13 5 12 10 11 8 7 14 18 15 7 10 9 10 16 7 -0 14 17 15 9 9 9 8 10 14 1 -1 16 12 11 10 9 11 7 15 23 10 17 -0 10 6 2 5
4 5 4 7 14 2 13 10 10 13 8 15 15 11 9 10 12 16 3 3 8 15 17 10 8 9 7 6 6 10 -3 16 14 10 9 13 13 -4 -1 -10 13 24 12 2 7 10 10
8 8 3 13 8 12 8 12 10 10 8 13 13 12 18 8 12 12 16 -1 5 11 18 12 9 8 6 6 7 4 12 -4 9 13 9 12 8 -6 7 -12 18 1 15 -11 6 0 9
24 13 9 10 6 8 8 12 10 9 10 12 16 12 15 14 9 13 9 0 4 7 12 12 9 11 -7 12 10 8 5 16 3 7 10 11 4 -1 -0 -6 21 6 -2 8 2 1 -1
6 10 17 10 8 4 7 11 11 11 11 9 12 14 13 17 10 15 11 -5 6 2 10 12 4 9 27 6 8 9 8 15 11 12 6 8 1 5 5 -3 6 7 -4 14 9 13 3
17 18 9 11 10 5 5 7 10 11 12 9 10 13 13 15 15 9 14 5 14 -7 23 3 6 -7 4 27 20 10 11 5 12 11 8 13 -3 7 1 -3 -9 27 9 9 1 8 5
12 17 21 14 16 7 7 4 8 9 12 9 7 10 14 15 17 11 12 13 -3 9 5 21 13 3 15 3 16 15 11 7 16 14 10 9 16 6 10 -0 2 8 23 0 10 -0 10
5 14 14 15 16 18 11 7 5 10 10 13 8 10 14 16 16 15 14 10 8 -2 12 7 17 12 8 -2 8 13 16 7 16 12 13 6 -15 42 -1 10 1 -3 -14 -12 2 30 -19
6 10 10 13 13 14 17 10 8 6 9 11 8 20 15 18 18 18 11 12 9 9 8 22 26 1 5 3 4 9 19 10 7 3 -8 8 38 -24 50 10 10 14 -7 -1 7 26 -8
10 6 9 10 13 11 13 17 11 9 11 10 13 15 20 17 16 12 10 15 4 -9 16 15 19 18 17 8 3 24 14 12 -4 16 31 -27 13 18 -27 28 7 10 23 23 21 17 7
12 9 6 7 12 13 12 14 16 10 11 9 14 9 20 16 17 9 29 23 -5 3 6 22 16 9 14 14 4 6 16 2 -22 -0 12 25 -27 10 6 7 35 18 23 4 7 8 5
13 12 7 10 6 13 11 10 14 15 11 10 9 12 21 20 9 13 31 7 -0 13 -20 2 15 24 9 11 11 3 23 9 -7 3 39 0 53 -9 21 6 21 -8 -10 -20 4 9 13
12 11 13 12 13 10 10 14 12 15 14 12 9 9 12 23 6 6 20 -8 5 6 29 12 12 21 7 14 -0 0 16 14 8 -3 -32 29 -13 53 -12 17 -1 37 7 -21 -3 20 -1
5 5 6 7 10 9 13 11 10 13 16 15 11 9 12 18 16 4 20 -34 13 -25 7 15 -2 -3 17 14 -11 20 4 62 14 -7 -0 3 17 9 25 11 13 -6 14 18 -2 7 5
3 2 2 2 2 2 7 11 11 14 15 17 15 12 9 14 23 19 -7 -12 16 17 -5 -12 13 29 8 13 -5 15 -6 -3 50 26 -10 -9 -5 30 26 14 -8 9 6 -4 10 -35 6
3 3 4 6 7 8 6 3 4 11 15 16 18 14 10 14 17 13 2 2 -1 -6 23 12 -4 -31 6 17 24 -4 20 -14 33 32 20 -11 19 7 10 9 28 3 7 9 -24 18 10
4 5 8 9 9 9 9 9 11 4 7 13 13 17 14 11 8 20 10 16 13 6 6 8 19 8 15 -2 3 16 4 12 -11 19 41 20 18 -13 36 27 16 13 4 6 -3 2 8
5 7 8 8 8 10 10 10 9 9 9 5 11 17 12 12 14 3 4 7 13 5 7 10 10 7 13 3 3 4 19 14 8 2 14 31 14 -10 -35 0 20 10 13 4 4 11 -6
7 7 7 7 8 10 11 11 10 10 11 10 9 5 8 -4 7 14 13 -9 -4 9 20 15 16 17 9 7 11 -4 16 28 13 13 9 -4 14 15 1 10 18 21 24 9 3 -13 -6
7 7 7 7 8 9 11 13 14 14 15 18 9 10 7 5 14 14 13 11 13 13 9 -1 5 9 19 16 9 -10 27 17 8 38 13 9 11 20 -1 17 16 17 18 19 17 15 5
7 8 8 8 9 9 10 11 12 15 17 15 19 14 10 5 7 9 10 13 7 12 22 20 12 8 11 14 17 8 7 12 14 27 36 6 -0 14 15 13 12 20 9 11 14 17 15
8 8 9 8 9 10 10 12 12 11 11 9 5 9 16 14 16 9 8 5 8 11 13 9 1 13 17 19 15 20 23 14 20 12 41 7 15 -0 26 -0 5 24 23 13 16 16 16
9 8 9 9 10 10 11 12 12 12 10 9 9 10 9 9 9 13 18 13 10 13 18 14 14 16 13 19 23 18 22 15 20 10 18 17 9 11 12 2 7 19 26 8 -7 7 10
9 9 10 10 10 11 11 13 11 9 11 13 12 9 10 7 16 4 12 12 11 12 16 17 19 16 14 13 1 13 7 12 23 20 12 13 -13 -24 -4 8 1 15 28 16 14 12 14
10 10 10 10 11 11 13 10 9 10 11 9 9 10 11 12 17 8 10 12 16 16 10 14 23 17 16 9 6 7 11 13 17 8 29 14 14 6 10 6 18 31 20 10 -20 52 3
11 9 9 9 10 11 10 10 8 7 6 7 5 8 10 13 9 24 24 22 16 12 9 7 39 13 12 -3 6 10 14 12 4 15 20 11 -11 17 7 4 9 15 14 -22 28 20 7
9 7 7 9 9 9 11 7 4 3 4 7 12 13 14 19 6 19 23 23 19 16 6 9 -8 34 15 6 9 14 7 25 14 4 20 11 -6 8 3 19 49 9 7 16 0 0 7
Height
3070 3066 3063 3058 3053 3050 3047 3044 3043 3041 3039 3037 3037 3037 3038 3038 3039 3039 3040 3040 3039 3039 3041 3043 3046 3048 3051 3054 3058 3059 3061 3065 3068 3072 3075 3077 3080 3083 3085 3090 3094 3097 3099 3099 3101 3106 3108
3067 3063 3059 3056 3052 3047 3045 3042 3040 3037 3035 3034 3033 3033 3034 3034 3036 3037 3039 3038 3038 3038 3038 3041 3043 3045 3049 3052 3055 3057 3060 3063 3066 3070 3073 3076 3080 3084 3087 3089 3094 3096 3097 3099 3102 3105 3106
3064 3061 3057 3054 3050 3047 3043 3040 3037 3035 3032 3030 3030 3030 3031 3031 3032 3034 3036 3036 3037 3036 3036 3038 3040 3043 3045 3051 3051 3055 3058 3061 3064 3068 3072 3076 3079 3083 3084 3089 3092 3094 3096 3098 3101 3105 3105
3062 3058 3055 3051 3048 3044 3040 3038 3034 3033 3030 3027 3026 3027 3027 3027 3028 3030 3032 3032 3034 3035 3035 3036 3038 3041 3043 3045 3049 3052 3056 3058 3061 3065 3070 3075 3077 3081 3084 3088 3090 3092 3095 3096 3100 3102 3103
3060 3056 3053 3050 3045 3042 3038 3035 3032 3029 3028 3025 3023 3023 3024 3024 3025 3027 3029 3030 3031 3032 3034 3035 3037 3039 3041 3042 3046 3049 3053 3057 3060 3062 3067 3071 3075 3078 3081 3083 3087 3088 3089 3093 3096 3097 3100
3057 3053 3051 3047 3044 3040 3036 3033 3029 3026 3025 3023 3021 3020 3020 3022 3022 3024 3026 3027 3029 3029 3032 3033 3034 3039 3037 3040 3043 3045 3049 3053 3056 3060 3063 3067 3070 3073 3076 3078 3078 3083 3087 3091 3092 3095 3098
3055 3051 3047 3043 3041 3039 3036 3031 3028 3025 3022 3021 3019 3017 3017 3018 3019 3021 3023 3026 3029 3029 3029 3031 3031 3033 3033 3036 3038 3041 3045 3049 3052 3057 3057 3062 3065 3064 3070 3075 3079 3084 3087 3087 3090 3092 3096
3052 3047 3045 3042 3040 3036 3033 3030 3026 3023 3020 3018 3017 3015 3014 3015 3016 3018 3020 3023 3025 3027 3026 3027 3029 3030 3032 3033 3035 3037 3041 3045 3047 3050 3055 3060 3056 3064 3071 3075 3078 3082 3083 3084 3086 3088 3092
3052 3047 3042 3038 3036 3034 3031 3028 3025 3021 3018 3017 3015 3014 3012 3012 3013 3015 3018 3020 3021 3023 3024 3024 3025 3027 3030 3033 3033 3034 3038 3041 3045 3048 3050 3053 3055 3063 3068 3071 3075 3077 3079 3081 3084 3087 3089
3052 3047 3042 3038 3035 3031 3028 3026 3023 3021 3017 3014 3013 3011 3010 3009 3011 3011 3014 3015 3019 3021 3023 3022 3021 3023 3026 3029 3031 3032 3036 3041 3042 3045 3049 3054 3057 3059 3062 3066 3072 3074 3078 3081 3083 3085 3086
3052 3047 3043 3038 3033 3028 3025 3022 3021 3018 3016 3012 3010 3008 3007 3006 3007 3008 3012 3013 3017 3021 3022 3017 3016 3018 3022 3027 3028 3029 3033 3037 3040 3042 3047 3048 3051 3055 3056 3059 3067 3071 3076 3079 3081 3081 3082
3052 3047 3042 3037 3032 3029 3025 3022 3019 3017 3013 3011 3008 3006 3004 3004 3004 3006 3007 3013 3017 3022 3016 3012 3011 3013 3017 3020 3024 3027 3031 3036 3039 3042 3043 3048 3049 3052 3054 3058 3064 3070 3074 3076 3078 3081 3079
3051 3046 3043 3038 3033 3029 3025 3020 3017 3015 3013 3009 3007 3005 3003 3003 3005 3005 3007 3012 3018 3015 3013 3011 3010 3011 3014 3016 3021 3024 3026 3029 3033 3037 3038 3043 3045 3048 3050 3055 3060 3064 3067 3074 3081 3079 3070
3052 3048 3044 3040 3035 3029 3024 3020 3016 3014 3011 3008 3006 3004 3003 3003 3004 3004 3005 3014 3013 3010 3009 3008 3009 3011 3012 3014 3018 3021 3022 3025 3030 3033 3035 3038 3042 3042 3044 3048 3050 3055 3059 3057 3064 3065 3066
3053 3048 3044 3040 3035 3031 3026 3020 3016 3012 3010 3008 3005 3004 3002 3002 3003 3005 3008 3008 3008 3007 3007 3007 3008 3008 3010 3012 3016 3018 3019 3020 3023 3027 3032 3032 3036 3035 3040 3043 3049 3049 3050 3057 3056 3057 3058
3054 3049 3045 3042 3037 3031 3026 3021 3015 3012 3010 3007 3004 3003 3003 3002 3002 3004 3006 3004 3004 3005 3006 3006 3007 3008 3007 3009 3012 3014 3016 3015 3018 3022 3026 3028 3031 3031 3035 3038 3041 3043 3049 3053 3052 3054 3053
3055 3051 3046 3042 3038 3032 3026 3021 3017 3012 3008 3006 3005 3002 3001 3000 3001 3002 3002 3003 3002 3003 3005 3005 3004 3004 3005 3006 3008 3009 3010 3012 3013 3016 3022 3025 3027 3028 3030 3030 3034 3038 3040 3044 3047 3048 3044
3055 3051 3046 3043 3037 3033 3027 3023 3018 3014 3009 3007 3002 3003 3001 2999 3000 2998 2998 3000 3000 3001 3002 3002 3001 3000 3001 3002 3003 3006 3006 3007 3007 3011 3015 3020 3022 3023 3024 3025 3027 3029 3032 3036 3037 3039 3040
3054 3049 3045 3040 3036 3032 3026 3021 3018 3015 3010 3005 3003 3001 2999 2998 2997 2996 2995 2996 2997 2998 2998 2997 2997 2994 2995 2998 3000 2998 3001 3002 3005 3006 3009 3013 3014 3019 3020 3023 3020 3022 3025 3029 3030 3032 3031
3052 3048 3043 3038 3034 3030 3027 3021 3017 3013 3009 3006 3002 2999 2998 2996 2996 2994 2993 2992 2992 2993 2993 2993 2992 2992 2990 2991 2993 2993 2992 2995 2997 3001 3003 3005 3006 3006 3007 3008 3012 3014 3017 3021 3024 3026 3025
3050 3046 3041 3037 3032 3028 3024 3019 3014 3010 3007 3004 3000 2999 2997 2995 2992 2991 2991 2988 2987 2988 2987 2987 2986 2987 2987 2987 2987 2986 2987 2987 2988 2991 2994 2998 2999 3001 3002 3004 3006 3007 3009 3013 3016 3019 3021
3047 3043 3039 3034 3029 3025 3022 3017 3012 3008 3003 3001 2998 2994 2991 2990 2990 2988 2986 2984 2982 2982 2982 2981 2980 2982 2981 2980 2981 2981 2981 2981 2982 2984 2986 2987 2988 2993 2997 2999 3002 3004 3005 3007 3010 3013 3016
3044 3038 3035 3030 3025 3021 3016 3012 3008 3005 3002 2997 2995 2992 2989 2987 2985 2984 2982 2979 2978 2977 2976 2974 2974 2975 2975 2975 2975 2976 2975 2976 2977 2976 2978 2980 2982 2986 2992 2996 2998 3002 3000 3003 3006 3010 3013
3039 3036 3031 3027 3022 3017 3013 3009 3004 3001 2999 2996 2992 2990 2985 2981 2979 2979 2976 2975 2973 2972 2970 2969 2969 2969 2970 2969 2969 2969 2970 2970 2973 2974 2975 2977 2978 2982 2989 2993 3001 2995 2996 3001 3004 3007 3010
3035 3031 3027 3023 3019 3014 3009 3005 3001 2996 2993 2991 2989 2987 2983 2978 2975 2972 2971 2968 2966 2965 2964 2964 2964 2965 2964 2965 2966 2966 2967 2969 2969 2970 2972 2975 2977 2980 2986 2990 2992 2992 2994 2998 3000 3006 3008
3032 3027 3024 3019 3014 3009 3005 3001 2998 2993 2990 2986 2984 2981 2978 2974 2970 2967 2965 2962 2960 2958 2958 2958 2959 2959 2961 2962 2963 2962 2963 2965 2966 2968 2970 2974 2976 2980 2981 2983 2987 2988 2990 2995 3000 3005 3008
3028 3024 3019 3015 3010 3006 3001 2998 2993 2989 2985 2982 2979 2976 2973 2969 2964 2961 2958 2956 2954 2953 2953 2954 2954 2955 2958 2959 2960 2960 2959 2960 2962 2963 2967 2970 2974 2975 2977 2981 2984 2986 2990 2995 3002 3007 3007
3024 3020 3016 3010 3006 3002 2996 2993 2990 2987 2981 2977 2974 2970 2967 2962 2958 2953 2950 2949 2948 2948 2949 2950 2952 2951 2954 2957 2958 2956 2956 2956 2959 2960 2962 2966 2970 2973 2976 2980 2985 2987 2991 2997 3000 3001 3006
3019 3015 3011 3008 3003 2998 2994 2990 2985 2982 2977 2972 2967 2962 2958 2955 2951 2947 2943 2942 2942 2943 2945 2946 2947 2947 2950 2953 2954 2954 2954 2954 2956 2958 2961 2966 2967 2969 2974 2977 2979 2985 2991 2995 2999 3003 3006